[Iaude] MPEC V80: 2016 VW2 [a=1.25,e=0.21,i=12.6,H=26.2]

mpec at si.edu mpec at si.edu
Tue Nov 8 23:58:01 EST 2016


M.P.E.C. 2016-V80                                Issued 2016 Nov.  9, 04:53 UT
 
     The Minor Planet Electronic Circulars contain information on unusual
         minor planets and routine data on comets.  They are published
    on behalf of Division F of the International Astronomical Union by the
          Minor Planet Center, Smithsonian Astrophysical Observatory,
                          Cambridge, MA 02138, U.S.A.

             Prepared using the Tamkin Foundation Computer Network

                              MPC at CFA.HARVARD.EDU
            URL http://www.minorplanetcenter.net/    ISSN 1523-6714


                                   2016 VW2
 
Observations:
     K16V02W* C2016 11 07.27152 01 44 48.25 +02 32 33.9          19.7 VqEV080G96
     K16V02W  C2016 11 07.27586 01 44 52.65 +02 31 12.4          19.6 VqEV080G96
     K16V02W  C2016 11 07.28015 01 44 56.93 +02 29 52.6          19.5 VqEV080G96
     K16V02W  C2016 11 07.28442 01 45 01.26 +02 28 32.3          19.8 VqEV080G96
     K16V02W  C2016 11 07.33082 01 45 47.85 +02 14 08.9          19.8 VqEV080G96
     K16V02W  C2016 11 07.33123 01 45 48.28 +02 14 01.9          19.6 VqEV080G96
     K16V02W  C2016 11 07.33164 01 45 48.69 +02 13 53.3          19.7 VqEV080G96
     K16V02W  C2016 11 07.33206 01 45 49.10 +02 13 46.2          19.7 VqEV080G96
     K16V02W KC2016 11 07.92749 01 56 15.15 -00 42 16.9                qEV080J95
     K16V02W KC2016 11 07.93315 01 56 20.32 -00 43 51.6                qEV080J95
     K16V02W KC2016 11 07.93955 01 56 26.19 -00 45 38.2          19.8 RqEV080J95
     K16V02W  C2016 11 08.14500 01 59 53.51 -01 40 48.0                oEV080926
     K16V02W  C2016 11 08.14735 01 59 55.62 -01 41 25.6                oEV080926
     K16V02W KC2016 11 08.14990 01 59 57.94 -01 42 08.0          20.2 RoEV080291
     K16V02W KC2016 11 08.15075 01 59 58.68 -01 42 22.4          20.4 RoEV080291
     K16V02W KC2016 11 08.15161 01 59 59.42 -01 42 35.8          20.4 RoEV080291
     K16V02W  C2016 11 08.20990 02 00 49.99 -01 58 10.2                oEV080926
     K16V02W  C2016 11 08.21222 02 00 52.00 -01 58 47.1                oEV080926
     K16V02W  C2016 11 08.21456 02 00 53.96 -01 59 24.4                oEV080926
 
Observer details:
291 LPL/Spacewatch II.  Observer R. S. McMillan.  1.8-m f/2.7 reflector + CCD.
926 Tenagra II Observatory.  Observers M. Schwartz, P. R. Holvorcem.  Measurer
    M. Schwartz.  0.81-m f/7 Ritchey-Chretien + CCD.
G96 Mt. Lemmon Survey.  Observer R. A. Kowalski.  Measurers E. J. Christensen,
    D. C. Fuls, A. R. Gibbs, A. D. Grauer, J. A. Johnson, R. A. Kowalski,
    S. M. Larson, G. J. Leonard, R. G. Matheny, R. L. Seaman, F. C. Shelly.
    1.5-m reflector + 10K CCD.
J95 Great Shefford.  Observer P. Birtwhistle.  0.40-m f/6.0 Schmidt-Cassegrain
    + CCD.
 
Orbital elements:
2016 VW2                                                 Earth MOID = 0.0238 AU
Epoch 2016 July 31.0 TT = JDT 2457600.5                 MPC
M 314.23970              (2000.0)            P               Q
n   0.70629489     Peri.  143.76920     +0.98251178     -0.11078999
a   1.2487591      Node   223.35996     +0.07210002     +0.96738974
e   0.2112475      Incl.   12.58981     +0.17167463     +0.22777767
P   1.40           H   26.2           G   0.15           U   7
Residuals in seconds of arc
161107 G96  0.3-  0.1+    161107 G96  0.1-  0.3+    161108 291  0.1-  0.2-
161107 G96  0.2+  0.2-    161107 J95  0.4+  0.3-    161108 291  0.4-  0.3+
161107 G96  0.2-  0.2+    161107 J95  0.2-  0.2-    161108 926  0.4+  0.1-
161107 G96  0.4+  0.3-    161107 J95  0.4-  0.3+    161108 926  0.7+  0.0
161107 G96  0.1-  0.0     161108 926  0.2-  0.5-    161108 926  0.0   0.1+
161107 G96  0.2+  0.6+    161108 926  0.3+  0.1-
161107 G96  0.1+  0.4-    161108 291  0.0   0.5+

Ephemeris:
2016 VW2                 a,e,i = 1.25, 0.21, 13                  q = 0.9850
Date    TT    R. A. (2000) Decl.     Delta      r     Elong.  Phase     V
2016 10 10    17 41 25.2 +44 20 46   0.1139  0.9862    80.5    92.9    24.8
...
2016 10 25    19 25 53.6 +49 05 32   0.05200 0.9992    93.9    83.1    22.7
...
2016 11 02    23 18 18.3 +35 50 57   0.02824 1.0115   132.5    46.3    20.2
...
2016 11 08    01 57 23.7 -00 58 51   0.03476 1.0230   157.7    21.6    20.0
2016 11 09    02 12 23.4 -05 11 31   0.03790 1.0250   155.3    23.8    20.3
2016 11 10    02 25 10.3 -08 41 49   0.04136 1.0272   152.7    26.3    20.5
...
2016 11 16    03 12 47.2 -20 20 49   0.06592 1.0408   140.8    36.9    21.9
...
2016 11 24    03 40 54.4 -25 20 29   0.1028  1.0612   133.9    42.1    23.0
...
2016 12 09    04 03 10.6 -26 00 45   0.1767  1.1047   129.0    43.9    24.3

A. U. Tomatic                (C) Copyright 2016 MPC           M.P.E.C. 2016-V80




More information about the Iaude mailing list